• In United Kingdom
  • List of Countries
  • For 7 days
  • Water Temperature
  • Satellite Maps
  • Weather Map
  • Weather Widgets
  • user-avatar
    Login

    Hourly Weather São Paulo

    Today, 22 September, Saturday

    Time Temperature Precipitation Wind Pressure Humidity
    00:00 +20°C° 0 mm 1 mps 699 mmHg 85%
    01:00 +20°C° 0 mm 1 mps 699 mmHg 85%
    02:00 +19°C° 0 mm 1 mps 699 mmHg 86%
    03:00 +19°C° 0 mm 1 mps 698 mmHg 86%
    04:00 +19°C° 0 mm 1 mps 698 mmHg 86%
    05:00 +19°C° 0 mm 1 mps 699 mmHg 85%
    06:00 +19°C° 0 mm 1 mps 699 mmHg 85%
    07:00 +21°C° 0 mm 1 mps 699 mmHg 75%
    08:00 +23°C° 0 mm 1 mps 700 mmHg 65%
    09:00 +25°C° 0 mm 1 mps 701 mmHg 54%
    10:00 +27°C° 0 mm 2 mps 701 mmHg 49%
    11:00 +28°C° 0 mm 2 mps 701 mmHg 44%
    12:00 +30°C° 0 mm 2 mps 701 mmHg 38%
    13:00 +30°C° 0 mm 2 mps 700 mmHg 39%
    14:00 +30°C° 0 mm 2 mps 699 mmHg 39%
    15:00 +30°C° 0 mm 3 mps 699 mmHg 40%
    16:00 +28°C° 0 mm 3 mps 699 mmHg 48%
    17:00 +26°C° 0 mm 3 mps 698 mmHg 56%
    18:00 +24°C° 0 mm 3 mps 698 mmHg 65%
    19:00 +23°C° 0 mm 2 mps 698 mmHg 70%
    20:00 +21°C° 0 mm 2 mps 699 mmHg 75%
    21:00 +20°C° 0 mm 2 mps 699 mmHg 80%
    22:00 +20°C° 0 mm 2 mps 699 mmHg 81%
    23:00 +19°C° 0 mm 2 mps 699 mmHg 81%

    Tomorrow, 23 September, Sunday

    Time Temperature Precipitation Wind Pressure Humidity
    00:00 +19°C° 0 mm 2 mps 699 mmHg 82%
    01:00 +19°C° 0 mm 2 mps 699 mmHg 82%
    02:00 +19°C° 0 mm 1 mps 698 mmHg 83%
    03:00 +19°C° 0 mm 1 mps 698 mmHg 83%
    04:00 +19°C° 0 mm 1 mps 698 mmHg 83%
    05:00 +19°C° 0 mm 1 mps 698 mmHg 83%
    06:00 +19°C° 0 mm 1 mps 698 mmHg 82%
    07:00 +22°C° 0 mm 1 mps 699 mmHg 71%
    08:00 +24°C° 0 mm 1 mps 700 mmHg 60%
    09:00 +27°C° 0 mm 1 mps 701 mmHg 49%
    10:00 +29°C° 0 mm 1 mps 701 mmHg 44%
    11:00 +31°C° 0 mm 1 mps 701 mmHg 40%
    12:00 +32°C° 0 mm 1 mps 701 mmHg 35%
    13:00 +32°C° 0 mm 1 mps 700 mmHg 35%
    14:00 +32°C° 0 mm 2 mps 700 mmHg 36%
    15:00 +32°C° 0 mm 2 mps 699 mmHg 36%
    16:00 +30°C° 0 mm 2 mps 699 mmHg 44%
    17:00 +28°C° 0 mm 2 mps 699 mmHg 51%
    18:00 +26°C° 0 mm 2 mps 698 mmHg 59%
    19:00 +25°C° 0 mm 2 mps 699 mmHg 62%
    20:00 +24°C° 0 mm 1 mps 699 mmHg 65%
    21:00 +23°C° 0 mm 1 mps 699 mmHg 68%
    22:00 +23°C° 0 mm 1 mps 699 mmHg 68%
    23:00 +23°C° 0 mm 1 mps 699 mmHg 68%

    Day after tomorrow, 24 September, Monday

    Time Temperature Precipitation Wind Pressure Humidity
    00:00 +22°C° 0 mm 1 mps 699 mmHg 69%
    01:00 +22°C° 0 mm 1 mps 698 mmHg 68%
    02:00 +22°C° 0 mm 1 mps 698 mmHg 68%
    03:00 +22°C° 0 mm 1 mps 697 mmHg 68%
    04:00 +21°C° 0 mm 1 mps 698 mmHg 68%
    05:00 +21°C° 0 mm 1 mps 698 mmHg 67%
    06:00 +21°C° 0 mm 1 mps 698 mmHg 67%
    07:00 +24°C° 0 mm 1 mps 699 mmHg 59%
    08:00 +26°C° 0 mm 1 mps 699 mmHg 51%
    09:00 +29°C° 0 mm 1 mps 700 mmHg 44%
    10:00 +30°C° 0 mm 1 mps 700 mmHg 39%
    11:00 +32°C° 0 mm 2 mps 700 mmHg 34%
    12:00 +34°C° 0 mm 2 mps 700 mmHg 29%
    13:00 +34°C° 0 mm 2 mps 700 mmHg 30%
    14:00 +34°C° 0 mm 2 mps 699 mmHg 31%
    15:00 +34°C° 0 mm 2 mps 698 mmHg 31%
    16:00 +31°C° 0 mm 2 mps 698 mmHg 38%
    17:00 +29°C° 0 mm 2 mps 698 mmHg 44%
    18:00 +27°C° 0 mm 2 mps 698 mmHg 51%
    19:00 +26°C° 0 mm 1 mps 698 mmHg 52%
    20:00 +26°C° 0 mm 1 mps 699 mmHg 54%
    21:00 +25°C° 0 mm 1 mps 699 mmHg 55%
    22:00 +25°C° 0 mm 1 mps 699 mmHg 56%
    23:00 +24°C° 0 mm 1 mps 699 mmHg 57%

    25 September, Tuesday

    Time Temperature Precipitation Wind Pressure Humidity
    00:00 +24°C° 0 mm 2 mps 699 mmHg 57%
    01:00 +23°C° 0 mm 1 mps 698 mmHg 59%
    02:00 +23°C° 0 mm 1 mps 698 mmHg 60%
    03:00 +22°C° 0 mm 1 mps 697 mmHg 61%
    04:00 +22°C° 0 mm 1 mps 697 mmHg 63%
    05:00 +22°C° 0 mm 1 mps 698 mmHg 64%
    06:00 +21°C° 0 mm 1 mps 698 mmHg 65%
    07:00 +24°C° 0 mm 1 mps 699 mmHg 58%
    08:00 +26°C° 0 mm 2 mps 699 mmHg 51%
    09:00 +28°C° 0 mm 2 mps 700 mmHg 45%
    10:00 +30°C° 0 mm 2 mps 700 mmHg 41%
    11:00 +31°C° 0 mm 2 mps 700 mmHg 38%
    12:00 +34°C° 0 mm 2 mps 700 mmHg 34%
    13:00 +32°C° 0 mm 2 mps 699 mmHg 36%
    14:00 +32°C° 0 mm 2 mps 698 mmHg 38%
    15:00 +31°C° 0 mm 2 mps 698 mmHg 40%
    16:00 +30°C° 0 mm 2 mps 697 mmHg 47%
    17:00 +28°C° 0 mm 2 mps 697 mmHg 53%
    18:00 +26°C° 0 mm 2 mps 697 mmHg 60%
    19:00 +26°C° 0 mm 2 mps 697 mmHg 65%
    20:00 +25°C° 0 mm 1 mps 698 mmHg 69%
    21:00 +24°C° 0 mm 1 mps 698 mmHg 74%
    22:00 +23°C° 0 mm 1 mps 698 mmHg 74%
    23:00 +23°C° 0 mm 1 mps 697 mmHg 74%

    26 September, Wednesday

    Time Temperature Precipitation Wind Pressure Humidity
    00:00 +23°C° 0 mm 1 mps 697 mmHg 73%
    01:00 +23°C° 0 mm 1 mps 697 mmHg 71%
    02:00 +23°C° 0 mm 1 mps 696 mmHg 69%
    03:00 +23°C° 0 mm 1 mps 696 mmHg 67%
    04:00 +22°C° 0 mm 1 mps 696 mmHg 67%
    05:00 +22°C° 0 mm 1 mps 696 mmHg 68%
    06:00 +22°C° 0 mm 1 mps 696 mmHg 68%
    07:00 +24°C° 0 mm 2 mps 697 mmHg 61%
    08:00 +26°C° 0 mm 2 mps 697 mmHg 54%
    09:00 +29°C° 0 mm 3 mps 698 mmHg 46%
    10:00 +30°C° 0 mm 3 mps 697 mmHg 41%
    11:00 +33°C° 0 mm 4 mps 697 mmHg 36%
    12:00 +35°C° 0 mm 4 mps 696 mmHg 31%
    13:00 +35°C° 0 mm 4 mps 696 mmHg 32%
    14:00 +34°C° 0 mm 4 mps 695 mmHg 33%
    15:00 +34°C° 0 mm 4 mps 695 mmHg 34%
    16:00 +32°C° 0.3 mm 4 mps 695 mmHg 42%
    17:00 +29°C° 0.3 mm 3 mps 695 mmHg 50%
    18:00 +27°C° 0.3 mm 3 mps 695 mmHg 58%
    19:00 +25°C° 0.3 mm 3 mps 695 mmHg 67%
    20:00 +24°C° 0.3 mm 3 mps 695 mmHg 75%
    21:00 +21°C° 0.3 mm 3 mps 696 mmHg 84%
    22:00 +21°C° 1 mm 3 mps 696 mmHg 84%
    23:00 +21°C° 1 mm 2 mps 696 mmHg 83%

    27 September, Thursday

    Time Temperature Precipitation Wind Pressure Humidity
    00:00 +21°C° 1 mm 2 mps 696 mmHg 83%
    01:00 +21°C° 0.7 mm 2 mps 695 mmHg 82%
    02:00 +21°C° 0.7 mm 2 mps 695 mmHg 81%
    03:00 +21°C° 0.7 mm 2 mps 695 mmHg 80%
    04:00 +21°C° 0 mm 2 mps 695 mmHg 80%
    05:00 +21°C° 0 mm 2 mps 695 mmHg 81%
    06:00 +21°C° 0 mm 3 mps 695 mmHg 82%
    07:00 +23°C° 0 mm 2 mps 696 mmHg 76%
    08:00 +25°C° 0 mm 2 mps 696 mmHg 70%
    09:00 +26°C° 0 mm 2 mps 697 mmHg 65%
    10:00 +28°C° 0 mm 2 mps 697 mmHg 59%
    11:00 +29°C° 0 mm 3 mps 697 mmHg 53%
    12:00 +30°C° 0 mm 3 mps 697 mmHg 48%
    13:00 +30°C° 0.2 mm 3 mps 697 mmHg 49%
    14:00 +30°C° 0.2 mm 3 mps 696 mmHg 49%
    15:00 +30°C° 0.2 mm 2 mps 696 mmHg 50%
    16:00 +28°C° 0.4 mm 2 mps 696 mmHg 58%
    17:00 +26°C° 0.4 mm 2 mps 696 mmHg 65%
    18:00 +25°C° 0.4 mm 2 mps 696 mmHg 73%
    19:00 +24°C° 0.7 mm 2 mps 696 mmHg 77%
    20:00 +22°C° 0.7 mm 3 mps 697 mmHg 81%
    21:00 +21°C° 0.7 mm 3 mps 697 mmHg 86%
    22:00 +21°C° 0.3 mm 2 mps 697 mmHg 86%
    23:00 +20°C° 0.3 mm 2 mps 698 mmHg 87%
    Show more